Location: Caltech
(34.1382°N, 118.1253°W)
Time: 11:12:29
(UTC-08:00)

Hamsat - Visible Passes

Search period start: 11 February 2016 00:00
Search period end: 21 February 2016 00:00
Orbit: 588 x 620 km, 97.6° (Epoch: 10 February)

Date Brightness Start Highest point End Pass type
(mag) Time Alt. Az. Time Alt. Az. Time Alt. Az.
11 Feb ? 03:36:33 10° ENE 03:38:20 13° E 03:38:20 13° E visible
11 Feb ? 05:10:36 10° N 05:14:41 41° WNW 05:15:11 39° W visible
12 Feb ? 03:48:03 10° NE 03:51:05 19° E 03:51:05 19° E visible
12 Feb ? 05:23:10 10° NNW 05:26:56 29° WNW 05:27:56 26° W visible
13 Feb ? 03:59:52 10° NE 04:03:32 26° E 04:03:50 26° ESE visible
13 Feb ? 05:35:51 10° NNW 05:39:10 22° WNW 05:40:41 18° W visible
14 Feb ? 04:11:53 10° NNE 04:15:55 37° E 04:16:35 35° ESE visible
14 Feb ? 05:48:45 10° NNW 05:51:22 16° WNW 05:53:25 12° W visible
15 Feb ? 04:24:00 10° NNE 04:28:15 53° E 04:29:18 42° SE visible
15 Feb ? 06:02:09 10° NW 06:03:33 11° WNW 06:04:56 10° W visible
16 Feb ? 04:36:14 10° NNE 04:40:34 76° E 04:42:04 40° S visible
17 Feb ? 04:48:32 10° N 04:52:53 76° WNW 04:54:47 33° SSW visible
18 Feb ? 03:28:20 10° E 03:29:05 10° E 03:29:50 10° ESE visible
18 Feb ? 05:00:56 10° N 05:05:09 52° WNW 05:07:30 24° SW visible
19 Feb ? 03:39:00 10° ENE 03:41:30 15° E 03:43:22 12° ESE visible
19 Feb ? 05:13:24 10° N 05:17:24 37° WNW 05:20:13 17° SW visible
20 Feb ? 03:50:36 10° NE 03:53:53 21° E 03:56:05 15° SE visible
20 Feb ? 05:25:59 10° NNW 05:29:37 27° WNW 05:32:56 11° SW visible
